SCP
-0 -0 -0 -0 0 0 0 0 0 -0 -0 -0 -0 -0 -0 -0 -0 -0 -0 -0 -0 -0 -0 -0 -0 -0 -0 -0 -0 -0 -0 -0 -0 -0 -0 -0 -0 -0 -0 -0 -0 -0 -0
-0 -0 -0 -0 0 0 0 0 0 -0 -0 -0 -0 -0 -0 -0 -0 -0 -0 -0 -0 -0 -0 -0 -0 -0 -0 -0 -0 -0 -0 0 0 -0 -0 -0 -0 -0 -0 -0 -0 -0 -0
-0 -0 0 -0 -0 0 0 0 0 -0 -0 -0 -0 -0 -0 -0 -0 -0 -0 -0 -0 -0 -0 -0 -0 -0 -0 -0 -0 -0 -0 -0 -0 -0 -0 0 0 -0 -0 -0 -0 -0 -0
-0 -0 -0 -0 -0 -0 -0 -0 -0 -0 -0 -0 -0 -0 -0 -0 -0 -0 -0 -0 -0 -0 -0 -0 -0 -0 -0 -0 -0 -0 -0 0 -0 -0 0 0 0 -0 -0 -0 -0 -0 -0
-0 -0 -0 -0 -0 0 0 -0 -0 -0 -0 -0 -0 -0 -0 -0 -0 -0 -0 -0 -0 -0 -0 -0 -0 -0 -0 -0 -0 -0 -0 -0 -0 -0 0 0 0 -0 -0 -0 -0 -0 -0
-0 -0 -0 -0 0 -0 -0 0 0 -0 -0 -0 -0 -0 -0 -0 -0 -0 -0 -0 -0 -0 -0 -0 -0 -0 -0 -0 0 0 0 -0 -0 0 0 0 0 0 -0 -0 -0 0 0
0 -0 -0 -0 0 -0 -0 -0 -0 0 -0 -0 -0 -0 -0 -0 -0 -0 -0 -0 -0 -0 -0 -0 -0 -0 -0 -0 -0 -0 -0 0 0 0 0 0 0 0 0 0 0 -0 0
0 -0 -0 -0 -0 -0 -0 -0 -0 0 -0 -0 -0 -0 -0 -0 -0 -0 -0 -0 -0 -0 -0 -0 -0 -0 -0 -0 0 0 0 0 0 0 0 0 0 0 0 0 0 0 0
0 -0 -0 -0 -0 -0 -0 -0 -0 0 -0 -0 -0 -0 -0 -0 -0 -0 -0 -0 -0 -0 -0 -0 0 -0 -0 0 0 0 0 0 0 0 0 0 0 0 0 0 0 0 0
-0 -0 -0 -0 -0 -0 -0 -0 0 0 -0 -0 -0 -0 -0 -0 -0 0 0 0 -0 -0 -0 0 0 -0 0 0 0 0 0 0 0 0 0 0 0 0 0 0 0 0 0
-0 -0 -0 -0 -0 -0 -0 -0 0 0 -0 -0 -0 -0 0 0 0 0 0 0 0 -0 -0 0 0 0 0 0 0 0 0 0 0 0 0 0 0 0 0 0 0 0 0
0 0 0 0 -0 -0 0 0 0 0 0 0 0 -0 -0 0 0 0 0 0 0 0 0 0 0 0 0 0 0 0 0 0 0 0 0 0 0 0 0 0 0 0 0
-0 0 0 0 0 0 0 0 0 0 0 0 0 0 0 0 0 0 0 0 0 0 0 0 0 0 0 0 0 0 0 0 0 0 0 0 0 0 0 0 0 0 0
-0 -0 -0 0 -0 -0 0 0 0 0 0 0 0 0 0 0 0 0 0 0 0 0 0 0 0 0 0 0 0 0 0 0 0 0 0 0 0 0 0 0 0 0 0
-0 -0 -0 -0 -0 -0 -0 0 0 0 0 0 0 0 0 0 0 0 0 0 0 0 0 0 0 0 0 0 0 0 0 0 0 0 0 0 0 0 0 0 0 0 0
-0 -0 -0 -0 -0 -0 -0 -0 0 0 0 0 0 0 0 0 0 0 0 0 0 0 0 0 0 0 0 0 0 0 0 0 0 0 0 0 0 0 0 0 0 0 0
0 0 -0 -0 -0 -0 -0 0 0 0 0 0 0 0 0 0 0 0 0 0 0 0 0 0 0 0 0 0 0 0 0 0 0 0 0 0 0 0 0 0 0 0 0
0 0 0 0 0 0 0 0 0 0 0 0 0 0 0 0 0 0 0 0 0 0 0 0 0 0 0 0 0 0 0 0 0 0 0 0 0 0 0 0 0 0 0
0 0 0 0 0 0 0 0 0 0 0 0 0 0 0 0 0 0 0 0 0 0 0 0 0 0 0 0 0 0 0 0 0 0 0 0 0 0 0 0 0 0 0
0 0 0 0 0 0 0 0 0 0 0 0 0 0 0 0 0 0 0 0 0 0 0 0 0 0 0 0 0 0 0 0 0 0 0 0 0 0 0 0 0 0 0
0 0 0 0 0 0 0 0 0 0 0 0 0 0 0 0 0 0 0 0 0 0 0 0 0 0 0 0 0 0 0 0 0 0 0 0 0 0 0 0 0 0 0
0 0 0 0 0 0 0 0 0 0 0 0 0 0 0 0 0 0 0 0 0 0 0 0 0 0 0 0 0 0 0 0 0 0 0 0 0 0 0 0 0 0 0
0 0 0 0 0 0 0 0 0 0 0 0 0 0 0 0 0 0 0 0 0 0 0 0 0 0 0 0 0 0 0 0 0 0 0 0 0 0 0 0 0 0 0
0 0 0 0 0 0 0 0 0 0 0 0 0 0 0 0 0 0 0 0 0 0 0 0 0 0 0 0 0 0 0 0 0 0 0 0 0 0 0 0 0 0 0
0 0 0 0 0 0 0 0 0 0 0 0 0 0 0 0 0 0 0 0 0 0 0 0 0 0 0 0 0 0 0 0 0 0 0 0 0 0 0 0 0 0 0
0 0 0 0 0 0 0 0 0 0 0 0 0 0 0 0 0 0 0 0 0 0 0 0 0 0 0 0 0 0 0 0 0 0 0 0 0 0 0 0 0 0 0
Wind_Speed_500mb
25 33 27 26 22 19 18 17 19 17 16 20 22 17 17 18 23 23 22 25 24 16 17 21 18 21 26 30 32 35 37 35 36 34 32 33 34 34 33 32 32 35 36
33 32 28 27 21 22 22 24 21 15 19 23 20 16 19 22 29 28 31 28 23 25 23 18 18 22 23 24 23 22 23 24 28 22 23 24 24 23 25 23 27 25 25
31 30 28 25 22 24 25 24 20 18 21 23 19 20 22 24 32 31 30 27 28 24 25 22 21 23 26 21 19 19 25 30 28 23 26 23 21 14 14 11 12 9 6
31 28 28 24 22 23 27 27 23 19 19 22 24 23 25 29 34 31 24 32 31 29 27 26 29 30 26 25 25 30 32 36 26 27 26 31 31 25 22 14 13 16 12
32 30 27 25 24 22 26 31 25 20 15 21 25 24 25 29 34 29 24 27 29 30 26 28 29 30 29 29 29 33 37 31 23 21 16 22 20 17 14 14 16 19 24
28 24 25 26 26 27 26 30 29 20 14 18 22 21 21 23 26 27 24 23 24 28 25 27 26 24 26 28 31 33 32 29 24 20 16 21 24 19 13 12 15 14 14
30 24 25 25 25 26 27 28 29 20 15 17 18 19 19 20 20 19 19 21 21 25 23 23 22 25 26 27 29 35 36 23 16 16 13 11 12 13 10 13 14 15 11
28 27 26 26 24 23 25 26 27 21 15 15 16 17 17 17 17 18 18 19 21 23 20 20 22 22 25 25 36 36 34 23 13 15 12 15 20 15 15 10 8 8 8
27 30 27 25 25 23 23 22 21 20 15 14 15 15 15 16 17 16 20 20 13 15 17 18 19 23 24 25 28 30 27 18 4 12 14 18 16 12 13 11 6 5 6
26 26 27 25 23 21 21 21 19 18 14 13 13 13 12 13 16 16 18 22 15 15 15 16 18 21 21 20 18 19 20 17 9 8 7 10 7 8 7 3 6 8 7
28 20 20 25 24 21 19 18 17 15 13 11 10 9 9 9 10 10 12 8 10 11 12 13 13 14 14 13 14 16 13 8 7 14 13 9 15 9 7 4 6 4 5
34 29 24 21 18 16 19 18 16 14 12 10 8 6 5 3 3 5 3 3 1 2 7 7 7 8 9 10 10 11 8 8 7 11 16 12 16 17 15 13 12 12 10
45 49 39 31 30 26 23 21 20 18 17 12 10 9 7 4 4 3 6 6 3 2 7 8 7 5 6 3 2 6 2 11 8 8 12 14 17 19 20 14 15 16 15
47 44 51 42 38 34 29 26 25 22 21 17 14 13 11 7 8 9 7 8 5 5 5 6 5 1 2 2 2 6 8 11 4 8 7 13 16 17 17 16 16 15 15
50 47 49 49 44 40 36 29 25 26 25 22 19 17 15 15 12 12 10 10 7 7 4 6 6 4 3 3 3 4 4 6 8 9 10 10 11 13 13 15 16 15 15
46 41 40 44 49 46 41 39 33 31 28 27 26 22 21 21 17 16 16 15 13 9 8 7 7 6 5 3 2 4 6 8 9 11 17 19 19 17 16 16 17 19 19
46 42 45 42 45 49 47 44 40 38 34 33 32 30 27 27 24 22 22 20 18 15 14 10 9 8 9 10 10 11 14 17 20 22 26 31 32 31 26 26 24 23 24
45 47 46 51 43 45 46 44 44 44 41 39 35 31 31 33 32 29 29 27 24 20 21 17 14 13 15 18 21 25 25 28 30 31 35 37 41 41 43 41 38 37 33
43 44 50 50 45 42 44 45 44 42 43 41 39 36 31 27 34 35 34 32 31 27 26 27 27 25 25 28 32 37 41 43 45 43 44 47 47 48 50 51 51 49 47
42 42 45 44 39 39 45 46 45 44 45 44 44 42 38 36 30 34 37 36 37 37 39 37 35 38 40 41 45 48 50 53 55 53 56 57 58 56 55 57 58 58 57
46 46 46 46 46 43 44 51 53 53 50 49 48 46 45 42 42 37 39 39 41 45 43 43 45 47 47 49 54 58 60 61 65 64 67 64 63 59 63 63 62 60 62
45 48 51 52 50 50 50 48 48 51 53 51 51 52 49 52 49 50 48 44 46 44 45 44 46 50 49 52 58 60 65 67 67 67 53 60 52 52 55 51 57 53 58
35 42 48 52 51 50 51 54 47 46 50 51 54 53 53 52 51 50 52 54 52 52 50 54 51 52 57 57 61 60 27 36 50 54 58 54 51 65 59 64 64 58 64
42 45 47 50 54 55 49 56 54 49 51 51 49 47 49 50 48 48 50 53 58 57 56 55 56 61 65 69 67 69 73 73 58 49 57 58 63 77 76 68 68 68 68
32 32 36 40 47 50 58 51 51 46 40 41 40 38 39 40 39 38 40 45 51 58 57 52 58 54 60 58 66 60 67 75 68 75 74 77 69 67 66 75 70 74 71
14 16 20 24 28 32 42 54 53 43 34 34 26 30 32 31 33 32 32 33 36 43 46 47 49 53 53 59 57 61 62 66 68 74 76 83 84 83 78 79 79 74 72
Wind_Direction_500mb
158 147 144 129 126 118 112 110 101 79 78 82 76 77 93 93 89 99 117 114 105 116 100 96 90 96 92 91 93 93 89 84 78 73 78 77 79 81 79 80 84 83 80
154 156 146 133 128 121 109 109 103 84 78 77 76 90 93 92 88 84 87 95 109 101 112 102 93 97 101 95 96 96 94 93 85 78 85 76 72 67 75 76 79 76 82
156 151 142 132 131 127 126 119 111 97 82 78 82 87 87 85 91 85 71 86 89 98 99 101 95 95 109 99 95 98 93 91 78 69 84 87 81 89 90 85 88 88 104
148 147 141 130 122 126 120 121 118 106 93 81 85 95 91 92 89 89 81 88 94 90 95 94 92 98 101 101 103 101 97 92 80 70 74 79 78 74 76 82 79 69 66
139 139 136 130 126 123 120 124 123 117 95 72 72 84 87 95 102 96 82 95 94 92 91 94 97 101 103 105 104 101 96 97 101 87 83 74 65 45 47 75 75 62 67
152 145 136 129 130 128 123 128 129 131 113 86 80 84 89 91 97 102 103 88 91 96 92 92 100 100 99 98 96 99 97 83 85 80 83 84 74 56 32 44 40 61 85
178 155 145 135 133 132 125 128 131 133 118 101 89 81 86 89 93 93 98 86 88 101 87 86 87 95 97 102 98 99 99 78 82 79 73 60 28 9 0 346 58 101 106
182 163 154 139 135 134 129 130 141 137 126 109 91 84 90 97 101 98 92 94 82 94 92 86 88 94 98 105 102 103 90 88 42 59 24 49 56 39 25 26 88 95 97
191 169 160 153 147 142 136 134 136 146 135 122 105 99 95 95 101 108 104 105 102 103 81 83 85 97 98 96 104 110 112 105 67 52 40 73 66 52 54 69 81 24 32
192 174 169 165 159 153 149 147 146 153 148 134 118 102 99 105 116 121 129 129 138 125 119 105 89 94 101 96 100 105 100 72 32 349 59 85 25 3 53 86 20 357 62
185 187 186 177 174 168 165 162 162 163 160 149 135 113 105 100 115 123 134 161 144 137 111 103 98 97 94 91 91 106 92 95 350 332 44 41 23 35 351 1 10 35 43
182 179 186 192 176 189 185 183 183 181 184 179 158 139 87 81 103 100 161 180 113 107 124 131 119 103 95 81 84 94 58 87 346 359 24 32 33 37 30 21 24 24 22
193 181 183 196 179 190 211 198 204 204 205 208 188 198 188 212 236 236 234 236 222 161 156 176 158 144 106 159 32 87 90 93 13 347 14 28 36 31 31 34 25 22 23
208 209 197 192 193 191 205 207 217 214 220 221 223 219 224 235 233 247 235 234 211 216 192 204 203 210 164 172 123 122 112 119 314 336 17 18 28 30 26 24 20 11 13
209 228 215 203 207 207 200 213 212 221 224 229 232 235 237 242 241 246 251 251 250 242 256 242 244 227 195 141 134 157 154 157 222 285 335 340 340 354 8 12 6 356 352
218 227 233 221 215 219 219 223 211 213 230 229 238 240 242 246 245 248 247 244 243 243 233 236 240 220 222 203 200 256 259 260 277 286 310 321 327 322 325 329 332 337 334
218 218 230 236 227 225 230 232 224 227 224 239 237 242 241 247 250 250 251 248 245 242 235 236 231 234 247 239 256 270 272 280 289 295 293 302 305 309 308 309 308 310 309
215 217 218 234 237 227 230 233 235 236 235 233 243 244 244 243 247 248 252 252 249 245 242 241 241 252 268 271 280 285 291 291 293 292 289 287 294 297 301 303 300 300 297
216 218 221 233 236 230 229 232 236 235 237 235 240 239 248 245 244 248 250 252 250 250 257 252 254 261 273 282 285 286 290 291 287 285 285 288 287 290 295 297 297 296 294
218 224 226 241 240 233 231 232 236 235 236 237 241 240 239 252 246 246 249 254 249 250 252 254 257 266 276 280 284 285 282 281 285 288 290 291 288 286 282 281 286 290 291
215 214 222 229 247 246 237 231 234 238 238 239 243 246 244 238 255 250 251 252 247 252 259 262 265 270 273 275 276 276 281 283 283 286 287 288 290 289 286 284 282 281 285
220 220 218 224 231 243 251 251 239 238 242 245 246 250 249 248 252 259 259 259 257 254 253 257 260 262 265 274 274 281 283 286 288 291 290 291 293 292 290 291 294 290 289
223 223 223 225 225 233 240 248 247 237 243 243 246 250 253 257 257 256 261 265 265 263 264 262 265 268 270 275 275 274 274 286 290 287 286 283 280 289 291 294 297 291 289
231 232 231 230 226 223 226 241 243 241 240 245 249 252 253 257 259 256 258 256 263 266 271 271 271 272 272 274 274 275 285 280 275 285 283 274 276 287 286 293 289 284 285
244 240 241 240 239 233 223 228 247 244 243 242 249 254 257 259 258 258 260 255 257 263 266 270 270 273 275 282 284 282 280 294 280 277 279 289 291 293 288 294 287 287 285
211 221 230 231 230 227 226 221 224 244 251 258 251 256 257 262 270 274 276 269 263 262 264 270 273 274 279 281 281 285 285 290 282 281 287 291 291 294 293 288 287 289 288
Wind_Speed_850mb
25 33 27 26 22 19 18 17 19 17 16 20 22 17 17 18 23 23 22 25 24 16 17 21 18 21 26 30 32 35 37 35 36 34 32 33 34 34 33 32 32 35 36
33 32 28 27 21 22 22 24 21 15 19 23 20 16 19 22 29 28 31 28 23 25 23 18 18 22 23 24 23 22 23 24 28 22 23 24 24 23 25 23 27 25 25
31 30 28 25 22 24 25 24 20 18 21 23 19 20 22 24 32 31 30 27 28 24 25 22 21 23 26 21 19 19 25 30 28 23 26 23 21 14 14 11 12 9 6
31 28 28 24 22 23 27 27 23 19 19 22 24 23 25 29 34 31 24 32 31 29 27 26 29 30 26 25 25 30 32 36 26 27 26 31 31 25 22 14 13 16 12
32 30 27 25 24 22 26 31 25 20 15 21 25 24 25 29 34 29 24 27 29 30 26 28 29 30 29 29 29 33 37 31 23 21 16 22 20 17 14 14 16 19 24
28 24 25 26 26 27 26 30 29 20 14 18 22 21 21 23 26 27 24 23 24 28 25 27 26 24 26 28 31 33 32 29 24 20 16 21 24 19 13 12 15 14 14
30 24 25 25 25 26 27 28 29 20 15 17 18 19 19 20 20 19 19 21 21 25 23 23 22 25 26 27 29 35 36 23 16 16 13 11 12 13 10 13 14 15 11
28 27 26 26 24 23 25 26 27 21 15 15 16 17 17 17 17 18 18 19 21 23 20 20 22 22 25 25 36 36 34 23 13 15 12 15 20 15 15 10 8 8 8
27 30 27 25 25 23 23 22 21 20 15 14 15 15 15 16 17 16 20 20 13 15 17 18 19 23 24 25 28 30 27 18 4 12 14 18 16 12 13 11 6 5 6
26 26 27 25 23 21 21 21 19 18 14 13 13 13 12 13 16 16 18 22 15 15 15 16 18 21 21 20 18 19 20 17 9 8 7 10 7 8 7 3 6 8 7
28 20 20 25 24 21 19 18 17 15 13 11 10 9 9 9 10 10 12 8 10 11 12 13 13 14 14 13 14 16 13 8 7 14 13 9 15 9 7 4 6 4 5
34 29 24 21 18 16 19 18 16 14 12 10 8 6 5 3 3 5 3 3 1 2 7 7 7 8 9 10 10 11 8 8 7 11 16 12 16 17 15 13 12 12 10
45 49 39 31 30 26 23 21 20 18 17 12 10 9 7 4 4 3 6 6 3 2 7 8 7 5 6 3 2 6 2 11 8 8 12 14 17 19 20 14 15 16 15
47 44 51 42 38 34 29 26 25 22 21 17 14 13 11 7 8 9 7 8 5 5 5 6 5 1 2 2 2 6 8 11 4 8 7 13 16 17 17 16 16 15 15
50 47 49 49 44 40 36 29 25 26 25 22 19 17 15 15 12 12 10 10 7 7 4 6 6 4 3 3 3 4 4 6 8 9 10 10 11 13 13 15 16 15 15
46 41 40 44 49 46 41 39 33 31 28 27 26 22 21 21 17 16 16 15 13 9 8 7 7 6 5 3 2 4 6 8 9 11 17 19 19 17 16 16 17 19 19
46 42 45 42 45 49 47 44 40 38 34 33 32 30 27 27 24 22 22 20 18 15 14 10 9 8 9 10 10 11 14 17 20 22 26 31 32 31 26 26 24 23 24
45 47 46 51 43 45 46 44 44 44 41 39 35 31 31 33 32 29 29 27 24 20 21 17 14 13 15 18 21 25 25 28 30 31 35 37 41 41 43 41 38 37 33
43 44 50 50 45 42 44 45 44 42 43 41 39 36 31 27 34 35 34 32 31 27 26 27 27 25 25 28 32 37 41 43 45 43 44 47 47 48 50 51 51 49 47
42 42 45 44 39 39 45 46 45 44 45 44 44 42 38 36 30 34 37 36 37 37 39 37 35 38 40 41 45 48 50 53 55 53 56 57 58 56 55 57 58 58 57
46 46 46 46 46 43 44 51 53 53 50 49 48 46 45 42 42 37 39 39 41 45 43 43 45 47 47 49 54 58 60 61 65 64 67 64 63 59 63 63 62 60 62
45 48 51 52 50 50 50 48 48 51 53 51 51 52 49 52 49 50 48 44 46 44 45 44 46 50 49 52 58 60 65 67 67 67 53 60 52 52 55 51 57 53 58
35 42 48 52 51 50 51 54 47 46 50 51 54 53 53 52 51 50 52 54 52 52 50 54 51 52 57 57 61 60 27 36 50 54 58 54 51 65 59 64 64 58 64
42 45 47 50 54 55 49 56 54 49 51 51 49 47 49 50 48 48 50 53 58 57 56 55 56 61 65 69 67 69 73 73 58 49 57 58 63 77 76 68 68 68 68
32 32 36 40 47 50 58 51 51 46 40 41 40 38 39 40 39 38 40 45 51 58 57 52 58 54 60 58 66 60 67 75 68 75 74 77 69 67 66 75 70 74 71
14 16 20 24 28 32 42 54 53 43 34 34 26 30 32 31 33 32 32 33 36 43 46 47 49 53 53 59 57 61 62 66 68 74 76 83 84 83 78 79 79 74 72
Wind_Direction_850mb
158 147 144 129 126 118 112 110 101 79 78 82 76 77 93 93 89 99 117 114 105 116 100 96 90 96 92 91 93 93 89 84 78 73 78 77 79 81 79 80 84 83 80
154 156 146 133 128 121 109 109 103 84 78 77 76 90 93 92 88 84 87 95 109 101 112 102 93 97 101 95 96 96 94 93 85 78 85 76 72 67 75 76 79 76 82
156 151 142 132 131 127 126 119 111 97 82 78 82 87 87 85 91 85 71 86 89 98 99 101 95 95 109 99 95 98 93 91 78 69 84 87 81 89 90 85 88 88 104
148 147 141 130 122 126 120 121 118 106 93 81 85 95 91 92 89 89 81 88 94 90 95 94 92 98 101 101 103 101 97 92 80 70 74 79 78 74 76 82 79 69 66
139 139 136 130 126 123 120 124 123 117 95 72 72 84 87 95 102 96 82 95 94 92 91 94 97 101 103 105 104 101 96 97 101 87 83 74 65 45 47 75 75 62 67
152 145 136 129 130 128 123 128 129 131 113 86 80 84 89 91 97 102 103 88 91 96 92 92 100 100 99 98 96 99 97 83 85 80 83 84 74 56 32 44 40 61 85
178 155 145 135 133 132 125 128 131 133 118 101 89 81 86 89 93 93 98 86 88 101 87 86 87 95 97 102 98 99 99 78 82 79 73 60 28 9 0 346 58 101 106
182 163 154 139 135 134 129 130 141 137 126 109 91 84 90 97 101 98 92 94 82 94 92 86 88 94 98 105 102 103 90 88 42 59 24 49 56 39 25 26 88 95 97
191 169 160 153 147 142 136 134 136 146 135 122 105 99 95 95 101 108 104 105 102 103 81 83 85 97 98 96 104 110 112 105 67 52 40 73 66 52 54 69 81 24 32
192 174 169 165 159 153 149 147 146 153 148 134 118 102 99 105 116 121 129 129 138 125 119 105 89 94 101 96 100 105 100 72 32 349 59 85 25 3 53 86 20 357 62
185 187 186 177 174 168 165 162 162 163 160 149 135 113 105 100 115 123 134 161 144 137 111 103 98 97 94 91 91 106 92 95 350 332 44 41 23 35 351 1 10 35 43
182 179 186 192 176 189 185 183 183 181 184 179 158 139 87 81 103 100 161 180 113 107 124 131 119 103 95 81 84 94 58 87 346 359 24 32 33 37 30 21 24 24 22
193 181 183 196 179 190 211 198 204 204 205 208 188 198 188 212 236 236 234 236 222 161 156 176 158 144 106 159 32 87 90 93 13 347 14 28 36 31 31 34 25 22 23
208 209 197 192 193 191 205 207 217 214 220 221 223 219 224 235 233 247 235 234 211 216 192 204 203 210 164 172 123 122 112 119 314 336 17 18 28 30 26 24 20 11 13
209 228 215 203 207 207 200 213 212 221 224 229 232 235 237 242 241 246 251 251 250 242 256 242 244 227 195 141 134 157 154 157 222 285 335 340 340 354 8 12 6 356 352
218 227 233 221 215 219 219 223 211 213 230 229 238 240 242 246 245 248 247 244 243 243 233 236 240 220 222 203 200 256 259 260 277 286 310 321 327 322 325 329 332 337 334
218 218 230 236 227 225 230 232 224 227 224 239 237 242 241 247 250 250 251 248 245 242 235 236 231 234 247 239 256 270 272 280 289 295 293 302 305 309 308 309 308 310 309
215 217 218 234 237 227 230 233 235 236 235 233 243 244 244 243 247 248 252 252 249 245 242 241 241 252 268 271 280 285 291 291 293 292 289 287 294 297 301 303 300 300 297
216 218 221 233 236 230 229 232 236 235 237 235 240 239 248 245 244 248 250 252 250 250 257 252 254 261 273 282 285 286 290 291 287 285 285 288 287 290 295 297 297 296 294
218 224 226 241 240 233 231 232 236 235 236 237 241 240 239 252 246 246 249 254 249 250 252 254 257 266 276 280 284 285 282 281 285 288 290 291 288 286 282 281 286 290 291
215 214 222 229 247 246 237 231 234 238 238 239 243 246 244 238 255 250 251 252 247 252 259 262 265 270 273 275 276 276 281 283 283 286 287 288 290 289 286 284 282 281 285
220 220 218 224 231 243 251 251 239 238 242 245 246 250 249 248 252 259 259 259 257 254 253 257 260 262 265 274 274 281 283 286 288 291 290 291 293 292 290 291 294 290 289
223 223 223 225 225 233 240 248 247 237 243 243 246 250 253 257 257 256 261 265 265 263 264 262 265 268 270 275 275 274 274 286 290 287 286 283 280 289 291 294 297 291 289
231 232 231 230 226 223 226 241 243 241 240 245 249 252 253 257 259 256 258 256 263 266 271 271 271 272 272 274 274 275 285 280 275 285 283 274 276 287 286 293 289 284 285
244 240 241 240 239 233 223 228 247 244 243 242 249 254 257 259 258 258 260 255 257 263 266 270 270 273 275 282 284 282 280 294 280 277 279 289 291 293 288 294 287 287 285
211 221 230 231 230 227 226 221 224 244 251 258 251 256 257 262 270 274 276 269 263 262 264 270 273 274 279 281 281 285 285 290 282 281 287 291 291 294 293 288 287 289 288